When you browse on this site, cookies collect data to enhance your experience and personalize the content and advertising you see.
Visit our Privacy Policy to learn more. By continuing to use the site, you agree to this use of cookies and data.
  • In United Kingdom
  • List of Countries
  • For 7 days
  • Water Temperature
  • Weather Map
  • Weather Widgets
  • user-avatar
    Login

    Hourly Weather Mostar

    Today, 21 February, Friday

    Time Temperature Precipitation Wind Pressure Humidity
    00:00 +4°C° 0 mm 2 mps 761 mmHg 72%
    01:00 +4°C° 0 mm 2 mps 761 mmHg 72%
    02:00 +4°C° 0 mm 2 mps 760 mmHg 70%
    03:00 +4°C° 0 mm 2 mps 760 mmHg 69%
    04:00 +4°C° 0 mm 2 mps 760 mmHg 68%
    05:00 +3°C° 0 mm 2 mps 760 mmHg 66%
    06:00 +4°C° 0 mm 1 mps 760 mmHg 64%
    07:00 +5°C° 0 mm 1 mps 760 mmHg 62%
    14:00 +13°C° 0 mm 2 mps 760 mmHg 43%
    15:00 +13°C° 0 mm 2 mps 760 mmHg 47%
    16:00 +11°C° 0 mm 3 mps 761 mmHg 51%
    17:00 +10°C° 0 mm 3 mps 761 mmHg 56%
    18:00 +9°C° 0 mm 3 mps 762 mmHg 61%
    19:00 +7°C° 0 mm 3 mps 762 mmHg 66%
    20:00 +7°C° 0 mm 3 mps 763 mmHg 65%
    21:00 +5°C° 0 mm 3 mps 763 mmHg 63%
    22:00 +4°C° 0 mm 3 mps 764 mmHg 62%
    23:00 +4°C° 0 mm 3 mps 764 mmHg 63%

    Tomorrow, 22 February, Saturday

    Time Temperature Precipitation Wind Pressure Humidity
    00:00 +5°C° 0 mm 2 mps 764 mmHg 65%
    01:00 +4°C° 0 mm 2 mps 764 mmHg 66%
    02:00 +4°C° 0 mm 2 mps 765 mmHg 67%
    03:00 +4°C° 0 mm 2 mps 765 mmHg 69%
    04:00 +4°C° 0 mm 2 mps 765 mmHg 71%
    05:00 +3°C° 0 mm 2 mps 765 mmHg 71%
    06:00 +3°C° 0 mm 2 mps 765 mmHg 71%
    07:00 +3°C° 0 mm 2 mps 766 mmHg 72%
    08:00 +5°C° 0 mm 2 mps 766 mmHg 64%
    09:00 +7°C° 0 mm 2 mps 766 mmHg 57%
    10:00 +8°C° 0 mm 3 mps 766 mmHg 49%
    11:00 +9°C° 0 mm 2 mps 766 mmHg 45%
    12:00 +10°C° 0 mm 2 mps 766 mmHg 40%
    13:00 +13°C° 0 mm 2 mps 766 mmHg 36%
    14:00 +13°C° 0 mm 2 mps 765 mmHg 38%
    15:00 +12°C° 0 mm 2 mps 765 mmHg 41%
    16:00 +12°C° 0 mm 2 mps 765 mmHg 44%
    17:00 +11°C° 0 mm 1 mps 765 mmHg 48%
    18:00 +10°C° 0 mm 1 mps 765 mmHg 52%
    19:00 +8°C° 0 mm 1 mps 765 mmHg 56%
    20:00 +8°C° 0 mm 1 mps 765 mmHg 56%
    21:00 +8°C° 0 mm 1 mps 765 mmHg 55%
    22:00 +8°C° 0 mm 1 mps 765 mmHg 55%
    23:00 +7°C° 0 mm 1 mps 765 mmHg 55%

    Day after tomorrow, 23 February, Sunday

    Time Temperature Precipitation Wind Pressure Humidity
    00:00 +7°C° 0 mm 1 mps 765 mmHg 54%
    01:00 +7°C° 0 mm 1 mps 765 mmHg 54%
    02:00 +7°C° 0 mm 1 mps 764 mmHg 53%
    03:00 +7°C° 0 mm 1 mps 764 mmHg 53%
    04:00 +7°C° 0 mm 1 mps 763 mmHg 53%
    05:00 +7°C° 0 mm 1 mps 763 mmHg 53%
    06:00 +7°C° 0 mm 1 mps 763 mmHg 53%
    07:00 +7°C° 0 mm 1 mps 763 mmHg 53%
    08:00 +9°C° 0 mm 1 mps 763 mmHg 51%
    09:00 +11°C° 0 mm 1 mps 763 mmHg 48%
    10:00 +13°C° 0 mm 1 mps 763 mmHg 46%
    11:00 +13°C° 0 mm 1 mps 762 mmHg 47%
    12:00 +14°C° 0 mm 1 mps 762 mmHg 48%
    13:00 +14°C° 0 mm 1 mps 762 mmHg 49%
    14:00 +14°C° 0 mm 1 mps 761 mmHg 52%
    15:00 +14°C° 0 mm 1 mps 760 mmHg 55%
    16:00 +14°C° 0 mm 1 mps 760 mmHg 58%
    17:00 +12°C° 0 mm 1 mps 760 mmHg 64%
    18:00 +11°C° 0 mm 1 mps 760 mmHg 69%
    19:00 +9°C° 0 mm 0 mps 761 mmHg 75%
    20:00 +8°C° 0 mm 0 mps 761 mmHg 76%
    21:00 +8°C° 0 mm 0 mps 760 mmHg 77%
    22:00 +8°C° 0 mm 0 mps 760 mmHg 78%
    23:00 +8°C° 0 mm 0 mps 760 mmHg 79%

    24 February, Monday

    Time Temperature Precipitation Wind Pressure Humidity
    00:00 +8°C° 0 mm 0 mps 760 mmHg 80%
    01:00 +7°C° 0 mm 0 mps 760 mmHg 81%
    02:00 +8°C° 0 mm 1 mps 759 mmHg 82%
    03:00 +8°C° 0 mm 1 mps 759 mmHg 83%
    04:00 +8°C° 0 mm 1 mps 759 mmHg 85%
    05:00 +8°C° 0 mm 1 mps 759 mmHg 85%
    06:00 +8°C° 0 mm 1 mps 759 mmHg 85%
    07:00 +8°C° 0 mm 1 mps 759 mmHg 86%
    08:00 +10°C° 0 mm 1 mps 759 mmHg 80%
    09:00 +11°C° 0 mm 1 mps 759 mmHg 75%
    10:00 +13°C° 0 mm 1 mps 759 mmHg 70%
    11:00 +14°C° 0 mm 1 mps 759 mmHg 67%
    12:00 +15°C° 0 mm 1 mps 759 mmHg 64%
    13:00 +16°C° 0 mm 1 mps 759 mmHg 61%
    14:00 +16°C° 0 mm 1 mps 759 mmHg 63%
    15:00 +16°C° 0 mm 1 mps 759 mmHg 64%
    16:00 +16°C° 0 mm 2 mps 759 mmHg 66%
    17:00 +15°C° 0 mm 2 mps 759 mmHg 70%
    18:00 +14°C° 0 mm 1 mps 760 mmHg 75%
    19:00 +12°C° 0 mm 1 mps 760 mmHg 79%
    20:00 +12°C° 0 mm 1 mps 760 mmHg 80%
    21:00 +11°C° 0 mm 1 mps 760 mmHg 80%
    22:00 +11°C° 0 mm 1 mps 760 mmHg 80%
    23:00 +11°C° 0 mm 1 mps 759 mmHg 79%

    25 February, Tuesday

    Time Temperature Precipitation Wind Pressure Humidity
    00:00 +10°C° 0 mm 1 mps 759 mmHg 79%
    01:00 +10°C° 0 mm 1 mps 759 mmHg 78%
    02:00 +10°C° 0 mm 1 mps 758 mmHg 77%
    03:00 +10°C° 0 mm 1 mps 758 mmHg 76%
    04:00 +10°C° 0 mm 1 mps 757 mmHg 75%
    05:00 +10°C° 0 mm 1 mps 757 mmHg 74%
    06:00 +10°C° 0 mm 1 mps 757 mmHg 73%
    07:00 +10°C° 0 mm 1 mps 757 mmHg 72%
    08:00 +12°C° 0 mm 1 mps 756 mmHg 69%
    09:00 +13°C° 0 mm 1 mps 756 mmHg 65%
    10:00 +15°C° 0 mm 1 mps 756 mmHg 62%
    11:00 +15°C° 0 mm 2 mps 755 mmHg 62%
    12:00 +16°C° 0 mm 2 mps 755 mmHg 62%
    13:00 +17°C° 0 mm 2 mps 754 mmHg 61%
    14:00 +16°C° 0 mm 3 mps 754 mmHg 66%
    15:00 +14°C° 0 mm 3 mps 753 mmHg 71%
    16:00 +14°C° 0 mm 4 mps 753 mmHg 76%
    17:00 +13°C° 0 mm 3 mps 753 mmHg 80%
    18:00 +12°C° 0 mm 3 mps 753 mmHg 85%
    19:00 +11°C° 0 mm 3 mps 753 mmHg 90%
    20:00 +12°C° 0.1 mm 3 mps 753 mmHg 91%
    21:00 +13°C° 0.1 mm 2 mps 752 mmHg 91%
    22:00 +13°C° 0.1 mm 2 mps 752 mmHg 92%
    23:00 +13°C° 0.2 mm 2 mps 752 mmHg 92%

    26 February, Wednesday

    Time Temperature Precipitation Wind Pressure Humidity
    00:00 +12°C° 0.2 mm 2 mps 751 mmHg 93%
    01:00 +12°C° 0.2 mm 2 mps 750 mmHg 93%
    02:00 +12°C° 0.2 mm 2 mps 750 mmHg 94%
    03:00 +12°C° 0.2 mm 2 mps 749 mmHg 94%
    04:00 +12°C° 0.2 mm 2 mps 749 mmHg 95%
    05:00 +12°C° 0.2 mm 2 mps 749 mmHg 95%
    06:00 +12°C° 0.2 mm 2 mps 748 mmHg 95%
    07:00 +12°C° 0.2 mm 1 mps 748 mmHg 94%
    08:00 +12°C° 0.2 mm 1 mps 748 mmHg 91%
    09:00 +13°C° 0.2 mm 2 mps 748 mmHg 88%
    10:00 +14°C° 0.2 mm 2 mps 748 mmHg 84%
    11:00 +14°C° 0.2 mm 2 mps 747 mmHg 82%
    12:00 +15°C° 0.2 mm 2 mps 747 mmHg 80%
    13:00 +14°C° 0.2 mm 3 mps 746 mmHg 77%
    14:00 +14°C° 0.2 mm 3 mps 746 mmHg 78%
    15:00 +13°C° 0.2 mm 3 mps 745 mmHg 79%
    16:00 +13°C° 0.2 mm 3 mps 745 mmHg 81%
    17:00 +12°C° 0.3 mm 3 mps 745 mmHg 84%
    18:00 +11°C° 0.3 mm 3 mps 745 mmHg 87%
    19:00 +12°C° 0.3 mm 2 mps 745 mmHg 91%
    20:00 +12°C° 0.9 mm 2 mps 746 mmHg 91%
    21:00 +10°C° 0.9 mm 2 mps 746 mmHg 90%
    22:00 +10°C° 0.9 mm 2 mps 747 mmHg 90%
    23:00 +8°C° 0.3 mm 3 mps 747 mmHg 85%
    Show more